Location: Memmingen
(47.9830°N, 10.1733°E)
Time: 04:23:13
(UTC+02:00)

ISS - Visible Passes

Search period start: 17 July 2018 00:00
Search period end: 27 July 2018 00:00
Orbit: 402 x 408 km, 51.6° (Epoch: 17 July)

Date Brightness Start Highest point End Pass type
(mag) Time Alt. Az. Time Alt. Az. Time Alt. Az.
17 Jul -3.3 01:41:12 47° WNW 01:41:51 59° NNW 01:45:07 10° ENE visible
17 Jul -2.5 03:15:31 10° WNW 03:18:40 42° N 03:21:50 10° ENE visible
17 Jul -3.8 04:52:05 10° WNW 04:55:23 89° SSW 04:58:41 10° ESE visible
18 Jul -3.5 00:50:12 62° NE 00:50:12 62° NE 00:53:02 10° ENE visible
18 Jul -2.5 02:23:18 10° WNW 02:26:28 42° N 02:29:38 10° ENE visible
18 Jul -3.4 04:00:00 10° WNW 04:03:16 65° NNE 04:06:34 10° ESE visible
18 Jul-0.422:25:44E22:25:44E22:17:25SSWvisible
18 Jul -3.6 23:58:10 54° E 23:58:10 54° E 00:00:55 10° ENE visible
19 Jul -2.7 01:31:04 10° W 01:34:15 45° N 01:37:27 10° ENE visible
19 Jul -2.9 03:07:53 10° WNW 03:11:07 51° NNE 03:14:20 10° E visible
19 Jul -3.6 04:44:25 10° WNW 04:47:37 48° SSW 04:50:49 10° SE visible
19 Jul -3.5 23:02:29 10° SW 23:05:35 41° SSE 23:08:43 10° ENE visible
20 Jul -3.1 00:38:49 10° W 00:42:03 54° NNW 00:45:18 10° ENE visible
20 Jul -2.6 02:15:42 10° WNW 02:18:54 44° N 02:22:04 10° E visible
20 Jul -4.0 03:52:15 10° WNW 03:55:33 77° SSW 03:58:50 10° ESE visible
20 Jul -2.8 22:10:50 10° SSW 22:13:36 25° SE 22:16:23 10° E visible
20 Jul -3.6 23:46:35 10° WSW 23:49:52 72° NNW 23:53:10 10° ENE visible
21 Jul -2.5 01:23:29 10° WNW 01:26:39 41° N 01:29:48 10° ENE visible
21 Jul -3.7 03:00:07 10° WNW 03:03:25 74° NNE 03:06:43 10° ESE visible
21 Jul -2.7 04:36:55 10° W 04:39:41 25° SW 04:42:26 10° SSE visible
21 Jul -4.0 22:54:27 10° WSW 22:57:43 79° SSE 23:01:00 10° ENE visible
22 Jul -2.6 00:31:13 10° W 00:34:23 43° N 00:37:34 10° ENE visible
22 Jul -3.1 02:07:58 10° WNW 02:11:14 55° NNE 02:14:28 10° E visible
22 Jul -3.5 03:44:34 10° WNW 03:47:41 40° SSW 03:50:48 10° SE visible
22 Jul -3.6 22:02:26 10° SW 22:05:37 50° SSE 22:08:49 10° ENE visible
22 Jul -2.9 23:38:56 10° W 23:42:08 50° NNW 23:45:22 10° ENE visible
23 Jul -2.7 01:15:47 10° WNW 01:18:59 45° N 01:20:45 22° ENE visible
23 Jul -1.7 02:52:19 10° WNW 02:53:14 17° WNW 02:53:14 17° WNW visible
23 Jul -3.4 22:46:39 10° W 22:49:54 64° NNW 22:53:11 10° ENE visible
24 Jul -2.6 00:23:33 10° WNW 00:26:43 42° N 00:29:01 16° ENE visible
24 Jul -2.0 02:00:09 10° WNW 02:01:37 24° WNW 02:01:37 24° WNW visible
24 Jul -3.8 21:54:25 10° WSW 21:57:43 89° N 22:01:00 10° ENE visible
24 Jul -2.6 23:31:16 10° WNW 23:34:25 42° N 23:37:35 10° ENE visible
25 Jul -2.9 01:07:58 10° WNW 01:10:36 48° NW 01:10:36 48° NW visible
25 Jul -2.8 22:38:56 10° W 22:42:07 47° N 22:45:19 10° ENE visible
26 Jul -2.9 00:15:45 10° WNW 00:18:57 48° N 00:19:48 37° ENE visible
26 Jul -1.0 01:52:17 10° WNW 01:52:25 11° WNW 01:52:25 11° WNW visible
26 Jul -3.1 21:46:36 10° W 21:49:50 58° NNW 21:53:06 10° ENE visible
26 Jul -2.6 23:23:30 10° WNW 23:26:40 42° N 23:29:05 15° ENE visible
